Temp_Advection
nan nan nan nan nan nan nan nan nan nan nan nan nan nan nan nan nan nan nan nan nan nan nan nan nan nan nan nan nan nan nan nan nan nan nan nan nan nan nan nan nan nan nan
nan -0 -0 0 0 1 1 0 0 0 -0 0 0 0 0 -0 -0 -0 -0 -0 -0 -0 0 0 0 0 0 -0 -0 0 0 0 0 0 1 0 -0 -0 -0 -0 -0 -0 nan
nan -0 -0 0 1 0 0 1 0 0 -0 -0 0 -0 0 0 0 -0 -0 -0 -0 -0 -0 -0 0 0 0 0 0 -0 0 -0 -0 -0 0 0 0 -0 -0 0 -0 0 nan
nan -0 -0 -0 0 0 0 1 0 0 0 0 0 0 0 0 0 0 -0 -0 -0 -0 -0 -0 -0 -0 -0 -0 0 -0 -0 0 0 -0 -0 0 -0 -0 -0 -0 0 0 nan
nan -0 0 -0 0 0 0 0 1 0 1 0 0 0 0 0 0 0 0 0 0 0 0 -0 -0 0 -0 -0 0 0 -0 -1 0 0 -0 -0 -0 -0 0 0 -0 -0 nan
nan 0 1 1 0 0 0 -0 0 0 0 0 0 0 0 0 0 0 1 0 0 0 -0 0 -0 0 0 -0 0 0 -0 -1 -0 -0 0 0 0 -0 -0 0 1 0 nan
nan 0 0 1 0 0 0 0 0 0 0 1 0 0 1 1 0 0 1 0 0 0 0 0 0 0 0 0 0 0 0 -0 -0 -1 -1 -0 0 0 0 -0 0 0 nan
nan 0 -0 0 -0 0 0 0 0 -0 0 1 1 0 0 1 1 1 0 0 0 0 0 0 0 0 0 0 -0 0 0 0 -0 0 -1 -1 -1 -0 -0 -0 -0 -0 nan
nan -0 -0 -0 -0 -0 -0 0 0 0 0 1 1 0 -0 -0 0 0 0 0 -0 -0 -0 0 -0 0 0 0 0 -0 -0 0 0 0 1 0 -0 -0 -0 -0 -1 -0 nan
nan -1 0 0 0 -0 -0 0 0 0 0 0 0 0 -0 -0 -0 0 0 0 0 0 0 -0 -0 -1 -0 -0 -0 -0 -0 0 0 -0 0 1 0 0 0 0 0 -0 nan
nan -0 -0 0 0 -0 -0 0 -0 0 0 0 0 0 0 -0 0 -1 -0 0 0 0 0 0 -0 -0 -0 -0 -0 -0 -0 -0 0 -0 -0 0 0 1 0 0 0 0 nan
nan 0 0 1 0 -0 -0 0 0 0 0 0 0 0 -0 -0 -1 -1 -1 -1 -0 -0 0 0 -0 -0 -0 -0 -0 -0 -0 -0 -0 -0 -0 -0 -0 0 0 0 0 0 nan
nan 1 2 2 0 -0 1 0 -0 -0 0 0 0 0 -0 0 -1 -1 -0 -1 -0 -0 -0 -1 -0 -0 -0 -0 -0 -0 -0 -0 -0 -0 -0 -0 -0 -0 0 0 0 0 nan
nan 0 1 0 -1 -0 1 -0 -0 0 0 0 0 0 0 0 -0 -0 0 -0 -2 -0 0 -1 -1 -1 -0 -0 0 -0 -0 -0 -0 -0 -0 -0 -0 -0 -0 -0 0 -0 nan
nan -1 0 -1 0 0 0 0 1 1 0 0 0 0 0 -0 -0 0 -0 -1 -1 -2 -1 -2 -1 -1 -0 -0 0 -0 -0 0 -0 0 -0 -0 -0 -0 -0 -0 -0 -0 nan
nan 0 0 0 1 1 0 1 1 0 0 0 -0 0 -0 -0 0 0 0 0 0 -1 -2 -2 -1 -0 -0 -0 -0 -0 0 0 0 0 -0 0 -0 -0 -0 -0 -0 0 nan
nan 0 -0 0 1 1 0 1 1 0 -0 -0 0 0 0 0 0 0 -0 -0 -0 0 -1 -0 -0 0 0 -0 -0 -0 0 -0 0 0 -0 -0 -0 -0 -0 0 -0 0 nan
nan -1 -0 1 1 0 1 0 0 -0 -0 -0 -0 0 -0 -0 0 0 -0 -0 -0 0 0 -0 0 0 -0 0 0 0 0 -0 -0 0 -0 -0 -0 -0 -0 -0 0 0 nan
nan -0 1 0 -0 -0 0 -0 -0 -0 -0 -0 0 -0 -0 0 0 -0 -0 -0 -0 0 0 0 0 -0 0 0 0 0 0 0 0 0 -0 -0 -0 -0 -0 0 0 0 nan
nan 1 0 0 0 0 -0 0 -1 -1 -0 0 0 0 0 0 -0 -1 -0 -0 -0 0 0 0 -0 0 0 0 0 0 0 -0 -0 0 -0 -0 0 0 0 0 -0 -0 nan
nan 1 1 0 -0 0 0 -0 -2 0 0 0 1 1 0 -0 -0 -0 0 -0 -0 0 0 0 -0 0 0 0 -0 -0 -0 -0 1 -0 -0 0 0 -0 -0 0 -0 -0 nan
nan 1 1 0 0 1 -0 -1 -0 0 -0 1 1 1 0 0 0 0 0 -0 -0 0 -0 -0 -0 -0 -1 -0 -0 0 -0 0 -1 -1 -0 -0 -0 -1 -0 -0 -0 0 nan
nan 1 1 0 0 -0 -1 1 0 -1 1 1 1 1 0 0 0 0 0 0 0 -0 -0 0 -0 -1 -1 -0 -0 -0 -1 -1 -1 0 0 0 -0 -1 -0 -0 0 0 nan
nan 1 1 1 1 0 1 1 -0 0 0 0 1 1 0 0 0 0 0 0 0 0 0 0 -0 -1 -0 0 -0 -0 0 1 1 0 0 -0 -0 -0 -0 0 0 0 nan
nan 0 1 2 1 1 0 0 0 0 0 1 0 1 0 0 0 0 1 0 0 0 0 0 0 0 0 0 0 1 1 1 -0 -0 0 0 -0 0 0 -0 0 0 nan
nan nan nan nan nan nan nan nan nan nan nan nan nan nan nan nan nan nan nan nan nan nan nan nan nan nan nan nan nan nan nan nan nan nan nan nan nan nan nan nan nan nan nan
Wind_Speed
45 40 36 37 39 38 39 41 37 33 28 23 22 19 18 15 13 15 19 18 14 17 17 20 18 16 20 20 21 16 14 10 13 19 20 18 13 11 10 12 12 17 16
45 41 39 41 41 41 40 38 39 35 30 27 25 20 18 16 15 15 19 18 14 15 19 16 21 18 21 17 16 16 19 13 19 18 21 15 10 9 7 9 16 17 16
47 42 40 43 43 42 38 37 40 36 31 27 25 24 17 14 14 15 17 18 18 13 8 13 15 19 12 14 16 14 12 11 16 17 18 14 12 8 11 18 18 15 20
48 44 41 44 44 42 37 37 40 37 33 33 29 25 19 18 19 17 18 18 13 9 7 9 10 19 12 11 12 12 12 12 15 15 17 17 15 12 18 18 16 19 22
52 48 45 45 46 45 41 39 38 38 33 31 30 24 23 21 20 20 20 16 13 9 3 4 18 22 18 6 9 12 14 14 13 13 14 13 15 15 18 18 17 15 19
55 52 48 47 48 48 46 43 39 35 35 33 29 26 23 21 22 21 19 19 16 12 7 7 18 23 20 9 10 12 13 15 13 13 13 11 10 18 16 17 19 20 13
57 56 51 50 51 51 48 45 42 39 36 37 32 27 24 22 22 22 20 20 19 16 11 10 15 24 22 14 8 10 11 13 11 12 14 11 12 14 15 16 16 17 14
61 60 54 54 53 51 49 46 47 43 41 40 40 37 23 22 23 23 22 19 16 15 15 16 18 14 20 18 12 8 10 10 11 12 15 15 14 13 15 13 13 15 13
63 63 56 56 55 53 51 50 50 48 45 42 43 38 22 13 28 24 24 23 20 17 20 21 21 18 18 16 15 13 9 6 10 14 15 14 13 13 12 13 13 13 13
60 62 59 58 56 55 51 52 53 51 51 48 45 37 27 21 24 20 25 24 20 20 23 23 22 21 19 18 17 15 13 8 7 14 14 14 14 13 12 12 13 14 13
41 61 62 60 58 56 51 53 54 55 55 53 51 44 34 17 28 23 27 29 24 24 23 24 22 21 19 16 16 16 16 13 8 13 14 13 10 12 12 12 12 12 13
25 62 63 61 58 57 51 54 54 57 55 56 52 47 40 32 35 27 21 34 32 30 26 24 24 22 21 18 17 17 17 18 14 12 13 13 12 11 11 10 11 11 11
18 48 63 64 62 59 53 52 55 57 56 57 55 54 48 39 29 30 24 37 34 29 27 28 26 24 22 20 19 18 18 18 17 14 15 16 16 14 11 11 11 9 9
42 16 53 60 62 60 55 52 52 54 54 54 54 54 48 41 33 29 29 34 33 30 32 31 30 28 25 22 20 19 19 18 17 15 14 14 14 14 13 12 11 10 9
28 33 49 57 64 61 58 52 52 54 52 51 53 51 48 39 32 30 28 27 39 27 37 35 32 32 27 25 23 22 21 19 18 17 16 15 15 14 14 13 13 11 10
37 13 43 54 61 62 60 55 52 53 52 50 49 49 47 42 32 31 27 25 35 34 31 37 36 32 29 27 25 23 21 20 19 18 17 16 16 16 15 15 14 13 12
40 28 20 51 60 66 64 57 54 53 52 48 47 46 43 44 37 34 30 26 28 37 28 34 33 27 29 28 28 25 23 22 21 20 19 18 17 17 16 16 16 15 14
19 29 24 30 44 54 65 58 55 53 51 50 47 45 45 45 42 39 36 32 28 31 33 23 34 34 28 29 27 26 26 25 23 21 20 18 18 17 17 17 17 16 15
24 21 27 20 11 40 58 57 53 51 51 49 48 47 46 45 46 44 39 36 31 28 31 29 29 33 28 30 30 28 27 26 25 22 21 20 19 18 17 16 16 16 15
20 29 32 32 28 21 50 60 55 51 49 50 49 48 46 47 45 45 43 40 35 32 31 32 25 31 34 30 32 32 31 31 28 26 25 23 21 19 18 17 16 15 14
16 22 28 32 33 22 42 54 57 54 52 50 50 49 48 46 44 43 44 42 39 35 34 35 29 31 35 35 37 36 34 29 30 29 27 26 26 23 22 21 19 17 16
11 16 20 19 27 37 39 50 62 59 55 52 53 51 50 45 44 42 43 42 41 41 39 39 39 34 35 35 34 36 34 34 34 33 32 31 27 26 24 23 19 18 17
7 13 16 17 11 40 49 53 53 62 58 54 53 52 52 50 44 43 40 40 39 40 40 40 42 41 37 37 35 32 34 35 36 32 34 32 31 30 26 24 22 21 21
4 8 12 16 15 17 40 51 52 57 57 53 53 52 52 52 49 45 43 43 42 40 41 42 43 39 38 36 34 31 29 31 34 33 32 33 29 31 25 24 23 23 24
6 5 8 12 13 14 12 34 56 59 54 52 50 50 49 50 49 47 46 45 45 43 40 39 41 40 39 37 34 34 35 34 36 35 34 34 33 29 26 26 24 24 24
10 7 4 7 10 10 15 21 40 52 49 47 48 47 44 46 45 45 47 47 47 45 41 40 40 41 42 39 37 37 35 36 36 37 36 37 35 32 32 31 29 28 28
Wind_Direction
191 188 184 180 177 172 171 176 177 180 180 180 176 180 162 144 133 129 122 117 127 135 125 123 118 118 110 118 112 96 93 120 131 137 122 115 114 107 104 96 85 91 87
192 191 186 184 179 176 170 176 178 182 179 178 172 164 161 142 135 131 125 127 123 123 123 124 130 123 119 120 124 123 115 106 114 126 130 116 105 92 95 106 86 87 87
196 195 191 185 180 176 174 176 182 184 180 188 191 173 160 156 148 145 147 143 139 128 122 127 134 127 134 131 124 119 127 126 115 117 137 127 117 114 98 92 93 90 87
200 196 195 187 181 178 177 182 182 180 185 183 176 176 173 170 161 162 161 159 166 172 195 210 161 132 136 129 128 138 120 110 132 124 126 137 125 108 92 90 73 85 97
203 199 195 189 182 178 181 183 184 188 181 176 173 176 175 176 173 169 174 182 183 190 185 219 151 139 149 164 123 129 137 119 112 133 135 123 141 122 108 105 91 78 87
204 200 196 191 184 184 185 187 186 191 190 186 182 180 180 184 186 181 187 191 203 215 231 191 151 144 143 164 137 130 128 129 129 124 121 148 126 127 125 126 116 108 101
206 202 199 193 188 188 190 194 188 190 191 191 186 183 185 191 196 195 199 211 219 221 223 207 161 162 159 155 150 130 135 143 147 134 129 118 124 121 127 118 123 122 119
209 205 199 196 192 193 192 192 187 186 190 194 188 178 163 179 196 198 203 219 220 225 215 198 165 165 168 160 164 147 137 139 143 138 147 134 127 121 130 121 118 127 127
209 203 204 199 196 197 196 191 190 190 187 187 191 178 166 189 186 199 211 224 228 219 196 191 171 169 163 167 167 165 155 136 138 135 133 138 131 125 121 120 117 114 122
203 205 202 201 199 199 199 195 195 195 192 188 191 188 188 190 182 188 208 220 221 203 186 181 179 179 180 176 173 169 168 176 158 147 139 132 132 128 124 119 117 116 114
212 210 206 204 201 199 201 198 196 197 201 196 196 195 203 196 190 185 190 200 207 203 198 190 183 185 185 185 180 178 181 181 183 164 155 155 144 141 133 126 123 120 116
247 199 208 206 203 201 204 202 200 201 203 205 201 202 202 197 196 197 195 193 198 198 201 198 195 191 191 191 190 189 187 184 198 179 155 162 163 159 150 145 141 133 127
250 195 202 203 204 201 204 205 205 207 209 209 208 209 208 213 216 212 213 192 193 195 199 205 203 198 197 195 192 191 191 192 197 189 176 173 175 174 178 165 160 155 147
224 269 199 195 205 205 204 206 210 209 210 212 213 215 214 218 221 220 213 202 189 196 199 200 201 205 203 200 198 195 195 195 196 195 191 193 186 185 184 181 179 176 173
222 244 200 198 209 207 205 208 210 208 210 212 214 216 215 215 217 220 219 219 206 186 203 203 202 201 202 202 200 201 200 198 198 199 200 197 194 194 193 193 193 191 192
209 209 201 205 203 209 206 208 209 209 210 211 213 215 216 214 215 214 216 219 214 210 204 204 202 205 201 201 201 203 201 201 203 203 204 204 203 204 203 204 205 206 209
202 215 200 201 207 204 205 207 209 208 209 210 212 213 213 212 211 209 214 217 215 215 222 212 207 206 208 204 200 202 203 205 205 207 208 210 210 212 213 213 215 218 222
190 203 204 209 204 198 203 206 207 208 209 210 213 212 214 211 212 213 218 218 214 215 220 224 212 208 208 209 205 205 203 206 208 209 211 212 213 216 218 220 221 223 227
207 221 213 234 248 205 206 211 213 210 211 212 212 213 213 211 211 213 216 218 216 215 217 220 218 210 209 207 205 207 209 210 209 209 211 214 214 215 217 219 220 222 226
193 201 210 226 244 264 207 209 212 212 215 215 215 215 216 214 212 213 215 216 215 214 213 215 222 214 210 206 207 209 208 211 211 209 211 215 216 216 218 219 219 219 223
177 178 202 218 219 244 210 214 216 218 217 216 217 217 218 218 216 216 213 213 213 214 211 211 216 215 212 210 208 208 214 212 214 214 216 218 217 217 219 222 223 225 228
189 178 180 199 220 206 218 218 223 215 218 218 217 218 218 219 220 218 220 219 217 214 213 213 216 219 218 215 213 213 212 214 217 215 219 223 225 226 228 230 233 235 238
180 188 183 195 208 218 220 216 212 217 219 219 220 220 218 219 220 219 221 225 223 223 224 221 220 221 221 219 217 218 219 220 222 221 223 227 226 232 233 236 239 241 243
103 153 170 171 185 202 208 214 209 213 218 219 222 222 221 221 220 221 222 224 224 223 224 226 229 229 228 228 226 229 229 228 229 229 230 236 236 238 240 241 241 244 247
59 113 143 157 171 189 205 216 202 214 218 222 221 223 223 224 224 225 226 224 225 225 224 228 231 232 235 238 236 233 230 229 232 234 232 237 240 243 241 241 240 243 247
40 45 77 147 156 179 186 201 207 202 210 215 222 221 224 225 228 227 227 224 224 225 223 223 226 229 233 235 236 238 237 234 234 236 234 238 243 244 248 246 245 244 249
Height
1488 1493 1499 1502 1507 1510 1516 1523 1528 1530 1534 1537 1539 1540 1542 1544 1545 1545 1545 1549 1550 1551 1552 1554 1554 1554 1556 1558 1558 1560 1559 1560 1562 1564 1564 1566 1566 1565 1565 1564 1562 1562 1561
1486 1492 1493 1501 1503 1511 1513 1522 1527 1530 1532 1537 1539 1540 1543 1544 1546 1547 1548 1550 1552 1552 1554 1555 1556 1558 1559 1560 1560 1561 1562 1562 1562 1565 1566 1567 1567 1567 1566 1566 1565 1565 1564
1483 1489 1492 1499 1502 1509 1514 1519 1526 1530 1533 1537 1540 1541 1544 1546 1548 1549 1551 1552 1553 1555 1557 1557 1557 1559 1560 1560 1561 1562 1562 1563 1564 1565 1567 1568 1569 1569 1567 1567 1567 1567 1567
1479 1485 1490 1496 1501 1507 1513 1517 1523 1529 1531 1534 1538 1541 1544 1547 1549 1550 1552 1553 1554 1556 1557 1557 1558 1561 1562 1561 1562 1562 1564 1564 1565 1566 1567 1568 1570 1570 1569 1570 1570 1570 1570
1475 1479 1485 1492 1499 1504 1509 1515 1520 1526 1529 1532 1536 1541 1544 1547 1549 1550 1552 1554 1555 1556 1557 1557 1558 1562 1563 1563 1563 1564 1564 1566 1566 1567 1568 1569 1570 1572 1573 1574 1574 1573 1573
1468 1473 1479 1486 1494 1501 1506 1512 1517 1523 1529 1532 1536 1541 1544 1547 1549 1551 1552 1553 1554 1555 1557 1557 1558 1562 1564 1565 1565 1565 1565 1567 1569 1569 1570 1571 1571 1572 1574 1574 1575 1576 1576
1461 1466 1472 1480 1489 1496 1500 1507 1513 1520 1526 1530 1533 1539 1543 1546 1549 1550 1551 1552 1553 1554 1556 1557 1558 1560 1563 1565 1566 1567 1567 1568 1569 1569 1571 1572 1573 1573 1575 1575 1576 1577 1577
1455 1459 1465 1473 1481 1489 1496 1501 1507 1514 1521 1525 1527 1532 1539 1545 1546 1548 1549 1550 1551 1552 1554 1555 1558 1560 1562 1565 1567 1568 1568 1568 1570 1570 1572 1573 1575 1575 1576 1576 1577 1578 1578
1448 1451 1457 1466 1474 1481 1488 1495 1501 1507 1514 1520 1523 1524 1533 1536 1540 1544 1546 1548 1549 1550 1551 1553 1556 1559 1562 1564 1567 1569 1570 1570 1571 1572 1572 1574 1576 1577 1578 1578 1578 1579 1579
1438 1443 1449 1459 1466 1473 1481 1488 1496 1502 1509 1513 1519 1522 1523 1526 1533 1539 1542 1544 1547 1548 1550 1552 1554 1557 1560 1563 1566 1569 1570 1572 1573 1573 1575 1576 1577 1578 1580 1580 1580 1581 1582
1430 1436 1442 1451 1459 1466 1475 1481 1489 1496 1503 1507 1511 1514 1519 1523 1527 1529 1532 1537 1543 1546 1549 1551 1553 1556 1559 1562 1565 1568 1570 1572 1573 1575 1576 1578 1578 1579 1581 1582 1583 1584 1584
1426 1431 1436 1441 1451 1460 1467 1474 1483 1489 1496 1502 1508 1512 1514 1516 1520 1523 1527 1533 1537 1541 1546 1549 1552 1554 1557 1560 1563 1566 1569 1571 1573 1574 1576 1577 1580 1581 1582 1583 1585 1586 1586
1418 1419 1428 1432 1443 1453 1462 1469 1477 1483 1489 1494 1501 1505 1511 1514 1519 1522 1525 1528 1533 1539 1543 1546 1549 1552 1555 1558 1560 1564 1567 1569 1572 1573 1575 1576 1578 1580 1582 1583 1585 1586 1587
1408 1413 1423 1423 1436 1447 1456 1464 1471 1477 1483 1489 1496 1501 1507 1512 1516 1519 1520 1524 1531 1535 1537 1539 1544 1548 1551 1555 1558 1561 1564 1567 1569 1571 1573 1575 1576 1578 1580 1582 1584 1585 1587
1408 1407 1412 1418 1433 1440 1449 1457 1464 1471 1476 1482 1490 1496 1502 1508 1513 1516 1519 1520 1523 1526 1529 1534 1538 1542 1547 1551 1555 1558 1561 1564 1567 1569 1571 1573 1575 1576 1579 1581 1582 1584 1585
1405 1406 1411 1417 1423 1433 1443 1450 1457 1464 1470 1475 1483 1491 1498 1503 1508 1512 1514 1517 1519 1523 1525 1528 1534 1538 1543 1548 1552 1555 1559 1562 1564 1567 1569 1571 1573 1574 1576 1578 1580 1582 1583
1398 1406 1410 1414 1420 1424 1434 1442 1449 1456 1463 1469 1477 1484 1492 1497 1502 1506 1510 1512 1514 1518 1524 1528 1531 1537 1541 1545 1548 1552 1555 1558 1561 1564 1566 1568 1570 1572 1573 1575 1577 1579 1581
1392 1400 1406 1412 1413 1415 1422 1434 1440 1447 1454 1461 1470 1478 1485 1490 1495 1500 1504 1507 1510 1514 1519 1524 1528 1532 1536 1541 1546 1549 1552 1555 1558 1561 1564 1566 1567 1569 1571 1572 1574 1576 1578
1388 1390 1398 1405 1409 1412 1415 1423 1433 1440 1447 1455 1464 1471 1478 1484 1488 1494 1498 1503 1506 1511 1514 1520 1523 1527 1532 1536 1541 1544 1548 1551 1554 1558 1560 1563 1564 1566 1568 1569 1571 1572 1574
1385 1391 1395 1402 1406 1411 1415 1416 1426 1434 1442 1450 1457 1465 1472 1477 1481 1486 1491 1496 1501 1505 1510 1515 1520 1523 1527 1531 1535 1538 1542 1545 1549 1553 1556 1558 1561 1562 1564 1566 1567 1568 1570
1382 1386 1390 1396 1400 1404 1411 1414 1418 1426 1435 1442 1450 1458 1465 1471 1476 1479 1484 1489 1493 1499 1503 1509 1514 1518 1520 1523 1526 1531 1535 1542 1544 1548 1552 1553 1555 1558 1559 1561 1563 1564 1565
1378 1382 1385 1393 1392 1397 1405 1411 1414 1418 1426 1434 1441 1449 1457 1465 1469 1474 1479 1484 1488 1490 1495 1501 1507 1512 1515 1519 1522 1526 1531 1535 1538 1542 1545 1548 1551 1552 1555 1556 1559 1560 1561
1376 1378 1381 1385 1385 1387 1388 1397 1406 1409 1417 1424 1433 1441 1448 1455 1462 1467 1474 1478 1482 1486 1491 1495 1499 1505 1510 1513 1518 1523 1526 1529 1530 1536 1539 1541 1544 1546 1549 1552 1554 1555 1557
1377 1377 1379 1378 1378 1381 1381 1392 1401 1402 1408 1415 1424 1432 1439 1446 1453 1459 1466 1470 1474 1478 1483 1488 1494 1501 1506 1511 1514 1517 1520 1524 1527 1531 1535 1535 1538 1539 1544 1547 1548 1549 1551
1382 1380 1378 1375 1377 1378 1378 1384 1390 1395 1402 1405 1415 1422 1430 1437 1445 1452 1456 1461 1466 1470 1477 1483 1489 1496 1501 1505 1510 1513 1514 1517 1520 1523 1526 1529 1532 1535 1538 1539 1541 1542 1544
1385 1383 1379 1377 1375 1376 1373 1377 1384 1387 1394 1402 1408 1414 1421 1429 1436 1444 1447 1452 1456 1461 1469 1476 1480 1485 1492 1496 1501 1504 1508 1509 1512 1515 1518 1522 1525 1529 1530 1530 1532 1535 1536